Terug naar catalogus

DELTA 1 DEB

ActiefSSO
NORAD 21368·DEBRIS·🇺🇸 United States

Gelanceerd Jun 12, 1975 vanaf Vandenberg Space Force Base

Loading…

Volgende Passages (komende 24 uur)

TLE

VersSource: Space-Track

Epoch: Sep 13, 2026, 10:44 UTC

1 21368U 75052CN  26256.44739484 -.00000017  00000-0  35012-4 0  9997
2 21368  99.5479  60.2542 0076006   6.4611  57.2454 13.59344579751494

Volg DELTA 1 DEB in realtime met AllMySat

Download on the App Store